This is the latest recevied weather packets stored in our database for station/object KO4LFZ. If no packets are shown the sender has not sent any weather packets the latest 10 day(s).
| Time | Temp. | Humidity | Pressure | Rain* | Wind** | Luminosity | Snow |
|---|---|---|---|---|---|---|---|
| 1777465184 | 15.56° C | 99% | 1012.4 hPa | 0 mm | - | 21 W/m² | - |
| 1777464879 | 15.56° C | 99% | 1011.9 hPa | 0 mm | - | 23 W/m² | - |
| 1777464575 | 15.56° C | 99% | 1011.9 hPa | 0 mm | - | 23 W/m² | - |
| 1777464271 | 15.56° C | 99% | 1011.8 hPa | 0 mm | - | 22 W/m² | - |
| 1777463967 | 15.56° C | 99% | 1011.7 hPa | 0 mm | - | 23 W/m² | - |
| 1777463662 | 15.56° C | 99% | 1011.9 hPa | 0 mm | - | 15 W/m² | - |
| 1777463357 | 15.56° C | 99% | 1012.2 hPa | 0 mm | - | 14 W/m² | - |
| 1777463054 | 15.56° C | 99% | 1012.2 hPa | 0 mm | - | 15 W/m² | - |
| 1777462749 | 15.56° C | 99% | 1011.7 hPa | 0 mm | - | 18 W/m² | - |
| 1777462444 | 15.56° C | 99% | 1011.8 hPa | 0 mm | - | 18 W/m² | - |
| 1777462142 | 15.56° C | 99% | 1011.6 hPa | 0 mm | - | 17 W/m² | - |
| 1777461838 | 15.56° C | 99% | 1011.5 hPa | 0 mm | - | 7 W/m² | - |
| 1777461534 | 15.56° C | 99% | 1011.4 hPa | 0 mm | - | 6 W/m² | - |
| 1777461230 | 15.56° C | 99% | 1011.5 hPa | 0 mm | - | 3 W/m² | - |
| 1777460925 | 15.56° C | 99% | 1011.7 hPa | 0 mm | - | 1 W/m² | - |
| 1777460621 | 16.11° C | 99% | 1011.7 hPa | 0 mm | - | 0 W/m² | - |
| 1777460317 | 16.11° C | 99% | 1011.7 hPa | 0 mm | - | 0 W/m² | - |
| 1777460014 | 16.11° C | 99% | 1011.7 hPa | 0 mm | - | 0 W/m² | - |
| 1777459711 | 16.11° C | 99% | 1012 hPa | 0 mm | - | 0 W/m² | - |
| 1777459407 | 16.11° C | 99% | 1011.7 hPa | 0 mm | - | 0 W/m² | - |
| 1777459105 | 16.11° C | 99% | 1011.7 hPa | 0 mm | - | 0 W/m² | - |
| 1777458803 | 16.67° C | 99% | 1011.5 hPa | 0 mm | - | 0 W/m² | - |
| 1777458498 | 16.67° C | 99% | 1011.5 hPa | 0 mm | - | 0 W/m² | - |
| 1777458196 | 16.67° C | 99% | 1011.6 hPa | 0 mm | - | 0 W/m² | - |
| 1777457891 | 16.67° C | 99% | 1011.4 hPa | 0 mm | - | 0 W/m² | - |
* Rain latest hour (hover to see other rain measurements)
** Current wind speed in m/s (hover to see current wind gust speed)